METEOR 3M

导读

METEOR 3M是独联体(CIS)继承自苏联航天体系下,由俄罗斯研制的第三代改进型极轨气象卫星,于2001年12月10日成功发射。它运行在1012km高的近圆太阳同步极轨道,配备了成像光谱、气溶胶探测等多种载荷,设计寿命3年,实际因供电故障于2006年停止工作,超额服役近一年,仅发射该星,后续任务被新一代Meteor-M系列替代。

Basic Information
目录编号:
27001
目录名称:
METEOR 3M
国际标识:
2001-056A
轨道中心:
EARTH
卫星名称:
METEOR 3M
卫星全名:
--
卫星状态:
在轨 (已飞行8951 天)
发射日期:
2001-12-10 UTC
国别 :
俄罗斯(独联体) (CIS)
星等 :
--
Orbit Information
数据来源 国际轨道数据 AOE轨道数据
星历时间 2026-06-13T03:14:47+0800
8小时前
查看轨道信息
2026-06-12T07:00:00+0800
1天前
查看轨道信息
半长轴 7381.148km 7381.153km
偏心率 0.0013227 0.0012882
轨道倾角 99.823° 99.823°
近地点辐角 206.205° 210.734°
升交点赤经 350.165° 349.306°
平近点角 164.871° 324.752°
近地点 993.247km 993.507km
远地点 1012.775km 1012.525km
周期 105.183分钟 105.183分钟
每日圈数 13.690426 13.690412
Detailed Information
使用方式:
暂无
2D Orbit Map
3D Orbit Map
Orbit Altitude Analysis Chart
Orbit Inclination Analysis Chart
Orbit Comprehensive Analysis Chart
View Comprehensive Chart